Regional Weather Roundup
Issued by NWS

Home | Current Version | Previous Version | Text Only | Print | Product List | Glossary Off
Versions: 1 2 3 4 5 6 7 8 9 10 11 12 13 14 15 16 17 18 19 20 21 22 23 24 25 26 27

000
ASUS45 KBOU 210306
RWRCO

WEATHER ROUNDUP FOR COLORADO
NATIONAL WEATHER SERVICE DENVER/BOULDER CO
900 PM MDT SUN APR 20 2014

NOTE: "FAIR" INDICATES FEW OR NO CLOUDS BELOW 12000 FEET WITH NO
SIGNIFICANT WEATHER AND/OR OBSTRUCTIONS TO VISIBILITY.

COZ001>005-013-030-031-210400-
...NORTHWEST COLORADO...

CITY           SKY/WX    TMP DP  RH WIND       PRES   REMARKS
CRAIG          CLOUDY    49  40  71 E7        30.22R
HAYDEN         PTCLDY    45  37  76 E9        30.25R
MEEKER         PTCLDY    51  35  54 N3        30.21R
MOUNT WERNER   PTCLDY    39  23  52 NW7       30.38R
STEAMBOAT SPGS PTCLDY    44  36  72 CALM      30.24R
WALDEN         PTCLDY    36  32  87 SE5       30.27S
$$

COZ006>008-011-210400-
...WEST CENTRAL VALLEYS...

CITY           SKY/WX    TMP DP  RH WIND       PRES   REMARKS
GRAND JUNCTION PTCLDY    58  38  47 S3        30.14R
MONTROSE       MOCLDY    60  35  39 W7        30.19R
EAGLE          MOCLDY    52  37  58 CALM      30.25R
RIFLE          PTCLDY    52  40  63 E6        30.19R
DELTA          CLOUDY    63  38  40 SW9       30.16R
NUCLA            N/A     59  34  38 CALM      30.22R
$$

COZ017>023-064>068-210400-
...SOUTHWEST COLORADO...

CITY           SKY/WX    TMP DP  RH WIND       PRES   REMARKS
DURANGO        PTCLDY    59  26  28 NW14      30.15R
CORTEZ         CLEAR     53  32  44 SE5       30.15R
PAGOSA SPRINGS PTCLDY    52  19  27 CALM      30.19R
TELLURIDE      MOCLDY    45  34  65 CALM      30.33R
WOLF CREEK PAS PTCLDY    34  21  60 NE8       30.40R WCI  27
$$

COZ009-010-012-014-032>034-037-058>063-210400-
...CENTRAL COLORADO...

CITY           SKY/WX    TMP DP  RH WIND       PRES   REMARKS
ASPEN          LGT RAIN  43  40  89 SE5       30.31R
BUENA VISTA    MOCLDY    49  33  53 E7        30.24R
COPPER MTN     PTCLDY    34  28  80 W8        30.43R WCI  27
BERTHOUD PASS  HAZE      27  18  69 NW10      30.43R VSB<1/4 WCI  17
COTTONWOOD PAS PTCLDY    46  21  36 W9        30.31R
GUNNISON       PTCLDY    52  30  43 NE3       30.29R
KREMMLING      CLEAR     45  32  61 CALM      30.27R
LEADVILLE      CLOUDY    38  28  67 NW9       30.34R
SALIDA         PTCLDY    48  37  67 SW5       30.29R
SUNLIGHT       CLOUDY    37  32  81 CALM      30.41R
WILKERSON PASS PTCLDY    34  28  80 N8G16     30.40R WCI  27
$$

COZ069>075-210400-
...SAN LUIS VALLEY/SANGRE DE CRISTO MOUNTAINS...

CITY           SKY/WX    TMP DP  RH WIND       PRES   REMARKS
ALAMOSA        MOCLDY    52  35  52 NE13      30.18R
LA VETA PASS   CLOUDY    36  32  87 NW6       30.33R
SAGUACHE       PTCLDY    48  28  46 NE8       30.22R
$$

COZ035-036-038>040-210400-
...NORTHERN COLORADO FRONT RANGE...

CITY           SKY/WX    TMP DP  RH WIND       PRES   REMARKS
DENVER INTL AP CLOUDY    61  37  41 W22G29    30.10R
DMNS CITY PARK   N/A     61  34  35 NW7       30.12R
AURORA         MOCLDY    59  37  44 NW18      30.13R
FRONT RANGE AP NOT AVBL
ERIE MUNI ARPT MOCLDY    60  38  44 SW7       30.10F
BOULDER MUN AP MOCLDY    57  39  51 SW9       30.11S
CENTENNIAL     MOCLDY    58  36  43 NW15      30.15R THUNDER
BROOMFIELD     CLOUDY    55  43  62 SW6       30.14F
FORT COLLINS   PTCLDY    57  37  47 SW6       30.11R
LONGMONT       MOCLDY    60  39  46 SW6       30.12R
$$

COZ041-046-047-076>085-087-088-210400-
...PIKES PEAK/PALMER DIVIDE AND SOUTHERN FOOTHILLS...

CITY           SKY/WX    TMP DP  RH WIND       PRES   REMARKS
COLO. SPRINGS  MOCLDY    57  35  43 N23G29    30.14R
A. F. ACADEMY  PTCLDY    54  34  46 NW5       30.16R
ELLICOTT       NOT AVBL
FALCON         CLOUDY    53  34  48 N14G22    30.18R
FORT CARSON    MOCLDY    58  36  43 NW10      30.13R
LIMON          CLEAR     47  36  65 N3        30.08R
MONUMENT HILL  PTCLDY    46  34  61 W5        30.18R
TRINIDAD       CLEAR     52  43  71 W9        30.10R
$$

COZ042>045-048>051-090-091-210400-
...NORTHEAST COLORADO...

CITY           SKY/WX    TMP DP  RH WIND       PRES   REMARKS
GREELEY ARPT   MOCLDY    57  36  44 W9        30.07R
AKRON          PTCLDY    55  37  50 W9        30.02R
BURLINGTON     CLEAR     56  44  64 SE3       30.01R
WRAY           PTCLDY    59  46  62 CALM      29.98R
STERLING       PTCLDY    57  37  47 N6        29.98R
HOLYOKE        PTCLDY    59  43  55 SW7       29.98R
FORT MORGAN    PTCLDY    59  34  38 NW10      30.04R
$$

COZ086-089-092>099-210400-
...SOUTHEAST COLORADO...

CITY           SKY/WX    TMP DP  RH WIND       PRES   REMARKS
PUEBLO         PTCLDY    59  42  53 N9        30.05R
LA JUNTA       CLEAR     59  49  69 W9        30.01R
LAMAR          PTCLDY    59  45  59 CALM      29.96R
SPRINGFIELD      N/A     56  47  71 NW12      29.99R
$$



USA.gov is the U.S. government's official web portal to all federal, state and local government web resources and services.